EGHILFRD

Guest
Details From EGHI - Southampton
To LFRD - Dinard Pleurtuit-St Malo
Flight Number -
Tags decoded
Created
Modified
Stats Distance 146 nm / 270 km
Max Altitude 0 ft / 0 m
Waypoints 4
Social Downloads 0
Likes 0
Share VATSIM

Download

Looking for another format? Having issues loading an existing format? Contact us
Advertisement - Login to hide

Notes

Requested: EGHI NEDUL AGANO LFRD

Route

EGHI NEDUL AGANO LFRD

ID Type Via Altitude Latitude Longitude Leg Dist Tot Dist Heading (true) Name
O EGHI APT - 0 ft / 0 m 50.95026˚ -1.35681˚ - 0 nm - Southampton
NEDUL FIX - 0 ft / 0 m 50.66611˚ -1.54778˚ 18 nm 18 nm 203° / 203° -
AGANO FIX - 0 ft / 0 m 49.66500˚ -2.00000˚ 62 nm 81 nm 196° / 196° -
O LFRD APT - 0 ft / 0 m 48.58798˚ -2.07992˚ 64 nm 145 nm 183° / 183° Dinard Pleurtuit-St Malo

Altitude Profile

Advertisement - Login to hide

EGHI

Details ICAO EGHI (SOU)
Name Southampton
Region United Kingdom
Timezone Europe/London (UTC+1.0)
Stats Elevation 44 ft / 13 m (AMSL)
Location 50.950255° -1.356806°
Runways 1
Magnetic Variation 0.747° W

METAR

EGHI 261950Z 05009KT 010V100 9999 FEW046 FEW048CB 21/13 Q1015

Decode

TAF

Not found

Departure Runways

ID Width Length Bearing (true) Bearing (mag) Surface Threshold Offset Overrun Length
02 121 ft / 37 m 5,650 ft / 1,722 m 19.33° 20.08° Asphalt 240 ft / 73 m 0 ft / 0 m
20 121 ft / 37 m 5,650 ft / 1,722 m 199.34° 200.09° Asphalt 144 ft / 44 m 0 ft / 0 m

LFRD

Details ICAO LFRD (DNR)
Name Dinard Pleurtuit-St Malo
Region France
Timezone Europe/Paris (UTC+2.0)
Stats Elevation 216 ft / 66 m (AMSL)
Location 48.587983° -2.079916°
Runways 2
Magnetic Variation 0.736° W

METAR

LFRD 262000Z AUTO 13010KT 9999 -TSRA FEW032/// SCT090/// OVC110/// ///CB 17/15 Q1012 BECMG NSW SCT030

Decode

TAF

TAF LFRD 261700Z 2618/2718 VRB05KT 7000 SCT030 BECMG 2618/2620 17010KT PROB40 TEMPO 2618/2621 VRB15G38KT 4000 TSRA BKN030CB BECMG 2623/2701 BKN010 BECMG 2707/2709 BKN020 BECMG 2713/2715 24010KT

Decode

Destination Runways

ID Width Length Bearing (true) Bearing (mag) Surface Threshold Offset Overrun Length
12 148 ft / 45 m 4,909 ft / 1,496 m 115.13° 115.87° Asphalt 0 ft / 0 m 0 ft / 0 m
17 148 ft / 45 m 7,199 ft / 2,194 m 170.09° 170.83° Asphalt 0 ft / 0 m 0 ft / 0 m
30 148 ft / 45 m 4,909 ft / 1,496 m 295.14° 295.88° Asphalt 669 ft / 204 m 0 ft / 0 m
35 148 ft / 45 m 7,199 ft / 2,194 m 350.10° 350.84° Asphalt 0 ft / 0 m 0 ft / 0 m

Approach Navaids

Runway Type Ident Frequency Range Bearing (true) Bearing (mag) Slope Elevation
35 Localiser DR 110.75 MHz 27 nm / 50 km 350.08° 350.82° - 216 ft / 66 m (AMSL)
35 Glidescope DR 110.75 MHz 27 nm / 50 km 350.08° 350.82° 3.00° 216 ft / 66 m (AMSL)
35 DME DR 110.75 MHz 27 nm / 50 km - - - 216 ft / 66 m (AMSL)

Popular Alternatives